Location: Gulgong NSW 2852, Australia
(32.2976°S, 149.5548°E)
Time: 11:47:33
(UTC+11:00)

Envisat - Pass Details

Date: 10 December 2021
Orbit: 764 x 766 km, 98.2° (Epoch: 22 January)

Event Time Altitude Azimuth Distance (km) Brightness Sun altitude
Rises 04:49:07 0° 28° (NNE) 3,217 6.1 -11.4°
Reaches altitude 10° 04:51:28 10° 33° (NNE) 2,299 5.5 -11.0°
Maximum altitude 04:56:20 48° 106° (ESE) 1,001 4.1 -10.1°
Drops below altitude 10° 05:01:15 10° 179° (S) 2,327 6.0 -9.3°
Sets 05:03:38 0° 185° (S) 3,260 6.7 -8.9°
